Regional Weather Roundup
Issued by NWS

Home | Current Version | Previous Version | Text Only | Print | Product List | Glossary Off
Versions: 1 2 3 4 5 6 7 8 9 10 11 12 13 14 15 16 17 18 19 20 21 22 23 24 25 26 27 28 29 30 31 32 33 34 35 36 37 38 39 40 41 42 43 44 45 46 47 48 49 50

000
ASUS43 KMKX 290700
RWRWI

WISCONSIN REGIONAL WEATHER ROUNDUP
NATIONAL WEATHER SERVICE MILWAUKEE/SULLIVAN WI
100 AM CST MON DEC 29 2014

NOTE: "FAIR" INDICATES FEW OR NO CLOUDS BELOW 12,000 FEET WITH NO
SIGNIFICANT WEATHER AND/OR OBSTRUCTIONS TO VISIBILITY.

WIZ001-002-006>008-014>016-023>028-290800-
NORTHWEST WISCONSIN

CITY           SKY/WX    TMP DP  RH WIND       PRES   REMARKS
SUPERIOR ARPT  CLEAR      3  -5  69 NW5       30.42R WCI  -6
ASHLAND        CLEAR     -3  -7  82 W5        30.37R WCI -13
HAYWARD        PTCLDY   -10 -16  74 S3        30.35R
SIREN          PTCLDY    -2  -5  87 CALM      30.40R
CUMBERLAND     PTCLDY     0  -8  71 N7        30.34S WCI -13
RICE LAKE      PTCLDY     0  -5  77 NW3       30.37R
CHETEK         PTCLDY    -1  -4  86 NW3       30.36R
LADYSMITH      MOCLDY    -7 -12  81 NW3       30.34S
EAU CLAIRE     NOT AVBL
MENOMONIE      PTCLDY     8   4  86 NW6       30.37R WCI  -2
NEW RICHMOND   PTCLDY     0  -6  75 CALM      30.38R
OSCEOLA        PTCLDY     1  -3  86 CALM      30.42R
$$

WIZ003>005-009-010-017-018-290800-
NORTH CENTRAL WISCONSIN

CITY           SKY/WX    TMP DP  RH WIND       PRES   REMARKS
MANITOWISH WTR PTCLDY   -13 -18  79 CALM      30.24S
ARBOR VITAE    PTCLDY    -8 -12  79 CALM      30.25R
WOODRUFF       PTCLDY    -8 -12  79 CALM      30.25R
RHINELANDER    PTCLDY    -3  -6  87 W6        30.26R WCI -15
EAGLE RIVER    FLURRIES  -6 -12  78 CALM      30.23S
LAND O LAKES   LGT SNOW   4   1  86 W3        30.23S
PHILLIPS       PTCLDY   -14 -18  81 CALM      30.28R
TOMAHAWK       PTCLDY   -13 -17  81 CALM      30.28R
MEDFORD        PTCLDY   N/A N/A N/A CALM      30.28R
MERRILL        PTCLDY    -6  -8  87 CALM      30.29R
$$

WIZ029-030-035-036-043>047-290800-
CENTRAL WISCONSIN

CITY           SKY/WX    TMP DP  RH WIND       PRES   REMARKS
WAUSAU         PTCLDY     3   0  87 NW5       30.29R WCI  -6
MOSINEE        PTCLDY     5   3  92 NW5       30.31R WCI  -4
MARSHFIELD     PTCLDY     8   2  76 N5        30.30R WCI   0
STEVENS POINT  PTCLDY     8   4  87 N3        30.31S
WAUPACA        PTCLDY    16  10  77 N5        30.33R WCI   9
WAUTOMA        NOT AVBL
WISC RAPIDS    PTCLDY    13   7  77 N7        30.32S WCI   3
CAMP DOUGLAS   NOT AVBL
$$

WIZ011>013-019>022-031-037>040-048>050-290800-
NORTHEAST WISCONSIN

CITY           SKY/WX    TMP DP  RH WIND       PRES   REMARKS
ANTIGO         PTCLDY    -6  -9  87 CALM      30.26R
SHAWANO        CLEAR     13   8  81 CALM      30.33R
OCONTO         CLEAR     12   7  79 CALM      30.32R
STURGEON BAY   CLEAR     16   5  62 N8        30.31R WCI   5
GREEN BAY      CLEAR     16   8  71 N6        30.33R WCI   7
MANITOWOC      NOT AVBL
APPLETON       CLEAR     18   9  68 N7        30.31R WCI   8
CLINTONVILLE   CLEAR     14   7  73 NW3       30.32S
OSHKOSH        PTCLDY    19  12  74 N9        30.30R WCI   8
$$

WIZ032>034-041-042-053>061-290800-
SOUTHWEST WISCONSIN

CITY           SKY/WX    TMP DP  RH WIND       PRES   REMARKS
LA CROSSE      MOCLDY    17  12  80 NW6       30.33F WCI   9
SPARTA         MOCLDY    16  13  90 CALM      30.33S
VIROQUA        MOCLDY    19  16  88 NE5       30.27R WCI  12
BOSCOBEL       CLOUDY    23  13  65 N6        30.31R WCI  16
PRAIRIE DU CHI CLOUDY    25  18  76 CALM      30.30R
PLATTEVILLE    CLOUDY    26  22  85 CALM      30.26S
$$

WIZ056-057-062-063-064-067-068-290800-
SOUTH CENTRAL WISCONSIN

CITY           SKY/WX    TMP DP  RH WIND       PRES   REMARKS
REEDSBURG      MOCLDY    19  14  80 N7        30.28F WCI  10
BARABOO/DELLS  MOCLDY    19  13  77 N7        30.27F WCI  10
LONE ROCK      NOT AVBL
MINERAL POINT  CLOUDY    27  21  80 N8        30.25R WCI  18
MADISON        MOCLDY    22  14  71 N13       30.28R WCI  10
MIDDLETON      MOCLDY    25  17  74 NE5       30.28R WCI  19
WATERTOWN      MOCLDY    23  18  82 N6        30.26S WCI  15
MONROE         MOCLDY    25  21  86 N7        30.24S WCI  17
JANESVILLE     MOCLDY    27  21  80 N3        30.26S
$$

WIZ051-052-058>065-066-070>072-290800-
SOUTHEAST WISCONSIN

CITY           SKY/WX    TMP DP  RH WIND       PRES   REMARKS
MILWAUKEE      MOCLDY    28  19  69 N6        30.26R WCI  22
WAUKESHA       CLOUDY    25  19  80 N5        30.27R WCI  19
MILWAUKEE/TIMM MOCLDY    27  19  74 N10       30.27R WCI  17
RACINE         CLOUDY    24  18  77 N6        30.27S WCI  17
BURLINGTON     MOCLDY    21  20  95 CALM      30.25S
KENOSHA        CLOUDY    27  19  72 N5        30.26R WCI  22
FOND DU LAC    PTCLDY    20  14  77 N9        30.29S WCI   9
SHEBOYGAN      PTCLDY    20  11  68 N7        30.28S WCI  11
WEST BEND      MOCLDY    23  16  74 N8        30.26S WCI  14
JUNEAU         MOCLDY    20  17  85 N8        30.28S WCI  11
$$

LSZ147-162-290800-
LAKE SUPERIOR

STATION/POSITION TIME  TEMP    WIND        PRES    WAVE
                       AIR SEA DIR/SP/G            HT/PER
                 (UTC) (F)     (DEG/KT/KT) (MB)    (FT/S)
DEVILS ISLAND    0600    9     320/ 11/ 14 1029.8R
PORT WING        0600   10     320/ 10/ 12 1028.8R
SAXON HARBOR     0600    5     200/  5/  7 1027.8R
$$

LMZ867-665-643>646-290800-
LAKE MICHIGAN

STATION/POSITION TIME  TEMP    WIND        PRES    WAVE
                       AIR SEA DIR/SP/G            HT/PER
                 (UTC) (F)     (DEG/KT/KT) (MB)    (FT/S)
CHAMBERS ISLAND  0600   16     300/  9/ 14 1026.1R
NORTHPORT PIER   0610   19     330/ 14/ 22 1025.4S
SISTER BAY       0613          350/ 19/ 21   N/A
ALGOMA LAKESHORE 0600          340/  8/ 13   N/A
KEWAUNEE LAKESHO 0600   17     350/  9/ 11 1025.0R
SHEBOYGAN LAKESH 0600   24 36  330/ 12/ 13 1026.6R
PORT WASHINGTON  0600   26     360/  5/ 10 1026.1R
MILWAUKEE LAKESH 0600   28     340/  9/ 11   N/A
KENOSHA   LAKESH 0600   29     340/  6/  7 1024.4S
$$

TC  - TEMPERATURE IN CELSIUS
VSB - VISIBILITY IN STATUTE MILES
WCI - WIND CHILL INDEX
HX  - HEAT INDEX



USA.gov is the U.S. government's official web portal to all federal, state and local government web resources and services.